Terug naar catalogus

STARLINK-36848

ActiefCommunicatieVLEO
NORAD 67936·PAYLOAD·🇺🇸 United States

Gelanceerd Feb 24, 2026 vanaf Vandenberg Space Force Base

Loading…

Volgende Passages (komende 24 uur)

TLE

VersSource: CelesTrak SupGP

Epoch: Sep 14, 2026, 22:53 UTC

1 67936C 26037E   26257.95395833 -.00013144  00000+0 -47606-3 0  2573
2 67936  43.0004 202.0490 0000968 249.5605 131.6460 15.27585724    13

Volg STARLINK-36848 in realtime met AllMySat

Download on the App Store